| time (UTC) | temp F | wind direction | speed knots | gust knots | rain 1hr in | rain 24hr in | rain mn in | humidity % | barometer mb |
| 20260505125003 | 60 | 344 | 2.6 | 10.4 | 0.00 | 0.00 | 0.00 | 52 | 1011.9 |
| 20260505124003 | 61 | 336 | 1.7 | 11.3 | 0.00 | 0.00 | 0.00 | 48 | 1011.8 |
| 20260505123003 | 61 | 328 | 2.6 | 11.3 | 0.00 | 0.00 | 0.00 | 51 | 1011.9 |
| 20260505122003 | 61 | 326 | 2.6 | 10.4 | 0.00 | 0.00 | 0.00 | 52 | 1012.0 |
| 20260505121003 | 61 | 328 | 1.7 | 9.6 | 0.00 | 0.00 | 0.00 | 52 | 1012.0 |
| 20260505120004 | 60 | 342 | 2.6 | 13.9 | 0.00 | 0.00 | 0.00 | 54 | 1011.9 |
| 20260505115003 | 60 | 327 | 1.7 | 10.4 | 0.00 | 0.00 | 0.00 | 53 | 1011.9 |
| 20260505114217 | 60 | 336 | 1.7 | 13.9 | 0.00 | 0.00 | 0.00 | 56 | 1011.9 |
| 20260505113003 | 59 | 331 | 2.6 | 10.4 | 0.00 | 0.00 | 0.00 | 57 | 1011.9 |
| 20260505112003 | 59 | 334 | 2.6 | 9.6 | 0.00 | 0.00 | 0.00 | 56 | 1012.0 |
| 20260505111003 | 59 | 335 | 1.7 | 11.3 | 0.00 | 0.00 | 0.00 | 56 | 1011.9 |
| 20260505102003 | 57 | 336 | 2.6 | 9.6 | 0.00 | 0.00 | 0.00 | 61 | 1011.8 |
| 20260505101003 | 57 | 324 | 1.7 | 9.6 | 0.00 | 0.00 | 0.00 | 62 | 1011.9 |
| 20260505100003 | 57 | 320 | 3.5 | 9.6 | 0.00 | 0.00 | 0.00 | 63 | 1011.9 |
| 20260505095217 | 56 | 326 | 3.5 | 11.3 | 0.00 | 0.00 | 0.00 | 63 | 1011.9 |
| 20260505094003 | 56 | 334 | 1.7 | 9.6 | 0.00 | 0.00 | 0.00 | 63 | 1011.8 |
| 20260505093003 | 56 | 334 | 2.6 | 10.4 | 0.00 | 0.00 | 0.00 | 65 | 1011.8 |
| 20260505092003 | 55 | 323 | 2.6 | 9.6 | 0.00 | 0.00 | 0.00 | 65 | 1011.9 |
| 20260505091003 | 55 | 328 | 2.6 | 10.4 | 0.00 | 0.00 | 0.00 | 66 | 1011.9 |
| 20260505090003 | 55 | 331 | 1.7 | 9.6 | 0.00 | 0.00 | 0.00 | 68 | 1011.8 |
| 20260505085003 | 54 | 329 | 1.7 | 11.3 | 0.00 | 0.00 | 0.00 | 69 | 1011.7 |
| 20260505084003 | 54 | 337 | 1.7 | 10.4 | 0.00 | 0.00 | 0.00 | 70 | 1011.7 |
| 20260505083003 | 53 | 334 | 2.6 | 11.3 | 0.00 | 0.00 | 0.00 | 70 | 1011.6 |
| 20260505082003 | 53 | 332 | 1.7 | 9.6 | 0.00 | 0.00 | 0.00 | 71 | 1011.6 |
| 20260505081003 | 53 | 330 | 2.6 | 9.6 | 0.00 | 0.00 | 0.00 | 72 | 1011.5 |
| 20260505080218 | 53 | 331 | 2.6 | 8.7 | 0.00 | 0.00 | 0.00 | 73 | 1011.5 |
| 20260505075003 | 52 | 330 | 1.7 | 9.6 | 0.00 | 0.00 | 0.00 | 76 | 1011.4 |
| 20260505074003 | 52 | 340 | 2.6 | 13.9 | 0.00 | 0.00 | 0.00 | 77 | 1011.4 |
| 20260505073003 | 52 | 330 | 1.7 | 8.7 | 0.00 | 0.00 | 0.00 | 78 | 1011.4 |
| 20260505072003 | 51 | 339 | 1.7 | 8.7 | 0.00 | 0.00 | 0.00 | 78 | 1011.3 |
| 20260505071003 | 51 | 334 | 0.9 | 7.0 | 0.00 | 0.00 | 0.00 | 79 | 1011.2 |
| 20260505070218 | 51 | 348 | 2.6 | 9.6 | 0.00 | 0.00 | 0.00 | 78 | 1011.2 |
| 20260505065003 | 52 | 338 | 1.7 | 11.3 | 0.00 | 0.00 | 0.00 | 78 | 1011.2 |
| 20260505064003 | 52 | 333 | 1.7 | 9.6 | 0.00 | 0.00 | 0.00 | 79 | 1011.1 |
| 20260505063003 | 52 | 351 | 0.0 | 12.2 | 0.00 | 0.00 | 0.00 | 80 | 1011.1 |
| 20260505062003 | 50 | 337 | 0.9 | 5.2 | 0.00 | 0.01 | 0.00 | 81 | 1011.0 |
| 20260505061217 | 50 | 336 | 0.9 | 5.2 | 0.00 | 0.01 | 0.00 | 81 | 1011.1 |
| 20260505060003 | 50 | 333 | 0.9 | 9.6 | 0.00 | 0.01 | 0.00 | 82 | 1011.1 |
| 20260505055217 | 50 | 330 | 0.9 | 9.6 | 0.00 | 0.01 | 0.00 | 82 | 1011.1 |
| 20260505054003 | 50 | 342 | 0.9 | 8.7 | 0.00 | 0.01 | 0.00 | 83 | 1011.1 |
| 20260505053217 | 50 | 337 | 0.9 | 6.1 | 0.00 | 0.01 | 0.00 | 83 | 1011.0 |
| 20260505052003 | 49 | 338 | 1.7 | 9.6 | 0.00 | 0.01 | 0.00 | 83 | 1011.0 |
| 20260505051003 | 49 | 344 | 0.9 | 9.6 | 0.00 | 0.01 | 0.00 | 83 | 1011.0 |
| 20260505041003 | 48 | 350 | 0.9 | 10.4 | 0.00 | 0.02 | 0.00 | 82 | 1010.8 |
| 20260505040217 | 48 | 353 | 0.9 | 11.3 | 0.00 | 0.02 | 0.00 | 82 | 1010.7 |
| 20260505035003 | 48 | 345 | 0.9 | 9.6 | 0.00 | 0.04 | 0.00 | 82 | 1010.7 |
| 20260505034003 | 48 | 314 | 0.9 | 4.3 | 0.00 | 0.04 | 0.00 | 82 | 1010.8 |
| 20260505033216 | 48 | 330 | 0.0 | 10.4 | 0.00 | 0.04 | 0.00 | 82 | 1010.8 |
| 20260505032003 | 48 | 282 | 0.9 | 7.0 | 0.00 | 0.05 | 0.00 | 82 | 1010.8 |
| 20260505031003 | 48 | 342 | 0.9 | 6.1 | 0.00 | 0.06 | 0.00 | 83 | 1010.8 |
| 20260505030003 | 48 | 346 | 0.9 | 4.3 | 0.00 | 0.06 | 0.00 | 82 | 1010.7 |
| 20260505025003 | 48 | 305 | 0.9 | 6.1 | 0.00 | 0.06 | 0.00 | 83 | 1010.8 |
| 20260505024003 | 48 | 326 | 1.7 | 9.6 | 0.00 | 0.06 | 0.00 | 83 | 1010.8 |
| 20260505023003 | 48 | 354 | 1.7 | 11.3 | 0.00 | 0.06 | 0.00 | 84 | 1010.9 |
| 20260505022218 | 48 | 347 | 0.9 | 8.7 | 0.00 | 0.06 | 0.00 | 84 | 1010.9 |
| 20260505021218 | 48 | 336 | 1.7 | 9.6 | 0.00 | 0.06 | 0.00 | 84 | 1011.0 |
| 20260505020003 | 48 | 344 | 1.7 | 10.4 | 0.00 | 0.06 | 0.00 | 85 | 1011.1 |
| 20260505015218 | 48 | 327 | 0.9 | 6.1 | 0.00 | 0.07 | 0.00 | 85 | 1011.1 |
| 20260505014003 | 48 | 343 | 1.7 | 11.3 | 0.00 | 0.07 | 0.00 | 86 | 1011.2 |
| 20260505013003 | 48 | 346 | 0.9 | 9.6 | 0.00 | 0.07 | 0.00 | 86 | 1011.2 |
| 20260505012003 | 48 | 339 | 0.9 | 6.1 | 0.00 | 0.08 | 0.00 | 86 | 1011.2 |
| 20260505011003 | 48 | 350 | 1.7 | 9.6 | 0.00 | 0.08 | 0.00 | 86 | 1011.2 |
| 20260505010003 | 48 | 333 | 1.7 | 8.7 | 0.00 | 0.09 | 0.00 | 86 | 1011.2 |
| 20260505005003 | 48 | 338 | 2.6 | 10.4 | 0.00 | 0.09 | 0.00 | 86 | 1011.3 |
| 20260505004003 | 48 | 348 | 1.7 | 12.2 | 0.00 | 0.09 | 0.00 | 87 | 1011.3 |
| 20260505003003 | 48 | 355 | 1.7 | 9.6 | 0.00 | 0.09 | 0.00 | 87 | 1011.3 |
| 20260505002217 | 48 | 340 | 1.7 | 9.6 | 0.00 | 0.10 | 0.00 | 87 | 1011.4 |
| 20260505001217 | 48 | 339 | 1.7 | 8.7 | 0.00 | 0.11 | 0.00 | 88 | 1011.3 |
| 20260505000003 | 47 | 350 | 1.7 | 12.2 | 0.00 | 0.12 | 0.00 | 88 | 1011.4 |
| 20260504235003 | 47 | 319 | 0.0 | 8.7 | 0.00 | 0.13 | 0.00 | 87 | 1011.5 |
| 20260504234003 | 47 | 348 | 0.0 | 6.1 | 0.00 | 0.15 | 0.00 | 87 | 1011.5 |
| 20260504233003 | 47 | 302 | 0.0 | 6.1 | 0.00 | 0.17 | 0.00 | 87 | 1011.5 |
| 20260504232217 | 47 | 276 | 0.0 | 5.2 | 0.00 | 0.17 | 0.00 | 86 | 1011.5 |
| 20260504231003 | 48 | 247 | 0.0 | 1.7 | 0.00 | 0.18 | 0.00 | 86 | 1011.5 |
| 20260504230003 | 48 | 360 | 0.0 | 4.3 | 0.00 | 0.24 | 0.00 | 86 | 1011.5 |
| 20260504225003 | 48 | 325 | 0.0 | 3.5 | 0.00 | 0.24 | 0.00 | 86 | 1011.5 |
| 20260504224217 | 49 | 231 | 0.0 | 0.9 | 0.00 | 0.27 | 0.00 | 86 | 1011.6 |
| 20260504223216 | 49 | 338 | 0.0 | 4.3 | 0.00 | 0.31 | 0.00 | 86 | 1011.6 |
| 20260504222216 | 49 | 351 | 1.7 | 6.1 | 0.00 | 0.32 | 0.00 | 86 | 1011.6 |
| 20260504221216 | 49 | 339 | 1.7 | 13.9 | 0.00 | 0.33 | 0.00 | 87 | 1011.6 |
| 20260504220004 | 49 | 323 | 0.9 | 6.1 | 0.00 | 0.33 | 0.00 | 87 | 1011.6 |
| 20260504215003 | 48 | 340 | 10.4 | 10.4 | 0.00 | 0.34 | 0.33 | 87 | 1011.6 |
| 20260504214218 | 48 | 339 | 6.1 | 6.1 | 0.00 | 0.34 | 0.33 | 86 | 1011.7 |
| 20260504213003 | 48 | 0 | 0.0 | 0.0 | 0.00 | 0.34 | 0.33 | 86 | 1011.7 |
| 20260504212003 | 48 | 0 | 0.0 | 0.0 | 0.00 | 0.34 | 0.33 | 85 | 1011.7 |
| 20260504211003 | 48 | 0 | 0.0 | 0.0 | 0.00 | 0.34 | 0.33 | 85 | 1011.8 |
| 20260504210003 | 48 | 0 | 0.0 | 0.0 | 0.00 | 0.34 | 0.33 | 84 | 1011.8 |
| 20260504205003 | 48 | 0 | 0.9 | 0.9 | 0.00 | 0.34 | 0.33 | 84 | 1011.7 |
| 20260504204003 | 49 | 0 | 0.0 | 0.0 | 0.00 | 0.34 | 0.33 | 83 | 1011.8 |
| 20260504203003 | 49 | 0 | 0.0 | 0.0 | 0.00 | 0.34 | 0.33 | 83 | 1011.7 |
| 20260504202218 | 49 | 0 | 0.0 | 0.0 | 0.00 | 0.34 | 0.33 | 83 | 1011.7 |
| 20260504201003 | 49 | 0 | 0.0 | 0.0 | 0.00 | 0.34 | 0.33 | 82 | 1011.7 |
| 20260504200003 | 50 | 0 | 0.0 | 0.0 | 0.00 | 0.34 | 0.33 | 81 | 1011.5 |
| 20260504195218 | 50 | 0 | 0.0 | 0.0 | 0.00 | 0.34 | 0.33 | 80 | 1011.5 |
| 20260504194217 | 51 | 0 | 0.0 | 0.0 | 0.00 | 0.34 | 0.33 | 79 | 1011.5 |
| 20260504193003 | 51 | 0 | 0.0 | 0.0 | 0.00 | 0.34 | 0.33 | 78 | 1011.5 |
| 20260504192003 | 52 | 0 | 0.0 | 0.0 | 0.00 | 0.34 | 0.33 | 76 | 1011.4 |
| 20260504191003 | 53 | 0 | 0.0 | 0.0 | 0.00 | 0.34 | 0.33 | 76 | 1011.4 |
| 20260504190003 | 53 | 0 | 0.0 | 0.0 | 0.00 | 0.34 | 0.33 | 75 | 1011.4 |
| 20260504185003 | 53 | 0 | 0.0 | 0.0 | 0.00 | 0.34 | 0.33 | 74 | 1011.4 |
| 20260504184003 | 54 | 287 | 0.0 | 3.5 | 0.00 | 0.34 | 0.33 | 73 | 1011.4 |
| 20260504183003 | 54 | 360 | 8.7 | 8.7 | 0.00 | 0.34 | 0.33 | 71 | 1011.3 |
| 20260504182003 | 54 | 313 | 0.0 | 4.3 | 0.00 | 0.34 | 0.33 | 70 | 1011.2 |
| 20260504181003 | 55 | 323 | 0.0 | 6.1 | 0.00 | 0.34 | 0.33 | 70 | 1011.2 |
| 20260504180003 | 56 | 340 | 0.9 | 9.6 | 0.00 | 0.34 | 0.33 | 70 | 1011.2 |
| 20260504175003 | 56 | 335 | 0.9 | 9.6 | 0.00 | 0.34 | 0.33 | 69 | 1011.1 |
| 20260504174003 | 56 | 0 | 0.0 | 0.0 | 0.00 | 0.34 | 0.33 | 67 | 1011.1 |
| 20260504173003 | 56 | 311 | 0.9 | 1.7 | 0.00 | 0.34 | 0.33 | 66 | 1011.1 |
| 20260504172003 | 57 | 289 | 0.0 | 6.1 | 0.00 | 0.34 | 0.33 | 63 | 1011.1 |
| 20260504171003 | 57 | 334 | 0.0 | 4.3 | 0.00 | 0.34 | 0.33 | 64 | 1011.1 |
| 20260504160218 | 58 | 345 | 0.0 | 8.7 | 0.00 | 0.34 | 0.33 | 59 | 1010.9 |
| 20260504151003 | 62 | 341 | 1.7 | 12.2 | 0.00 | 0.34 | 0.33 | 49 | 1011.0 |
| 20260504141003 | 64 | 325 | 1.7 | 13.9 | 0.00 | 0.34 | 0.33 | 53 | 1010.9 |